Terug naar catalogus

GALAXY 7

ActiefCommunicatieGEO
NORAD 22205·PAYLOAD·🇺🇸 United States

Gelanceerd Oct 28, 1992 vanaf Guiana Space Centre

Loading…

TLE

VersSource: Space-Track

Epoch: Sep 14, 2026, 05:45 UTC

1 22205U 92072A   26257.24023991 -.00000252  00000-0  00000-0 0  9993
2 22205  14.5434   2.5982 0004265  52.0222 318.8790  0.99703911117778

Volg GALAXY 7 in realtime met AllMySat

Download on the App Store